GOES 17 [+]

Last updated on Oct. 30, 2020, 5:56 a.m. UTC

1 43226U 18022A   20303.68932172  .00000099  00000-0  00000-0 0  9994
2 43226   0.0247 282.4078 0000288 281.4740 305.5577  1.00272957  9797
UTC
Height (km)
Latitude
Longitude
Inclination
Orbital Period
UTC large
Height (km)
Speed (km/s)
/
Latitude / Longitude
Inclination (degrees)
Orbital Period (minutes)
Azimuth
Elevation
Range (km)
Doppler Factor
iOS Compass Heading
iOS Angle

Next 30 passes for location: Hong Kong

Rise time Rise Azimuth (degrees) Set time Set Azimuth (degrees) Duration Max altitude (degrees)

No matching passes for this satellites